MDT,Max TemperatureF,Mean TemperatureF,Min TemperatureF,Max Dew PointF,MeanDew PointF,Min DewpointF,Max Humidity, Mean Humidity, Min Humidity, Max Sea Level PressureIn, Mean Sea Level PressureIn, Min Sea Level PressureIn, Max VisibilityMiles, Mean VisibilityMiles, Min VisibilityMiles, Max Wind SpeedMPH, Mean Wind SpeedMPH, Max Gust SpeedMPH,PrecipitationIn, CloudCover, Events, WindDirDegrees
2013-9-1,86,75,63,64,60,56,93,65,37,30.05,29.96,29.86,10,10,9,18,7,23,T,1,Rain-Thunderstorm,52
2013-9-2,94,77,59,60,55,44,87,59,30,30.02,29.94,29.86,10,10,10,24,13,31,0.00,1,,155
2013-9-3,100,81,62,58,51,46,67,43,18,29.94,29.87,29.80,10,10,10,20,10,25,0.00,0,,143
2013-9-4,103,84,65,53,47,39,52,32,12,29.96,29.90,29.85,10,10,10,17,8,25,0.00,0,,162
2013-9-5,101,79,57,50,43,39,62,37,12,30.01,29.95,29.91,10,10,9,22,8,28,0.00,0,,161
2013-9-6,102,81,60,45,40,35,48,30,11,29.97,29.89,29.82,10,10,6,20,8,25,0.00,0,,177
2013-9-7,102,79,55,48,44,40,57,35,12,29.92,29.86,29.80,10,10,9,21,8,30,0.00,0,,175
2013-9-8,99,82,64,51,46,38,56,34,12,29.84,29.76,29.68,10,10,10,24,13,31,0.00,0,,173
2013-9-9,100,86,72,52,47,42,46,31,16,29.73,29.67,29.60,10,10,10,26,18,36,0.00,0,,192
2013-9-10,89,75,61,60,55,48,78,52,26,29.96,29.89,29.74,10,10,10,21,7,33,T,2,,11
2013-9-11,72,70,67,66,63,57,93,80,66,30.20,30.06,29.95,10,9,2,,,,0.17,7,Rain,-1
2013-9-12,76,70,63,65,63,61,100,85,69,30.22,30.12,30.01,10,8,2,21,12,28,0.25,7,Rain,130
2013-9-13,78,69,60,64,62,59,93,81,68,30.18,30.02,29.88,10,4,0,29,17,36,1.58,7,Fog-Rain-Thunderstorm,141
2013-9-14,87,75,63,62,59,54,87,61,35,29.99,29.81,29.71,10,9,8,31,16,36,0.00,2,,183
2013-9-15,72,65,57,61,58,55,93,80,66,30.24,30.06,29.76,10,8,3,21,10,28,0.11,7,Rain,45
2013-9-16,68,63,57,61,57,55,100,87,73,30.27,30.17,30.01,10,5,1,23,10,30,0.02,7,Rain,84
2013-9-17,90,74,57,61,58,51,100,64,27,30.10,29.90,29.68,10,6,0,22,10,29,0.00,3,Fog,213
2013-9-18,94,78,62,61,55,48,84,53,22,29.70,29.63,29.57,10,10,10,22,10,26,0.00,0,,220
2013-9-19,79,68,57,58,53,49,78,60,42,30.04,29.85,29.69,10,10,8,20,9,26,0.18,3,Rain,43
2013-9-20,74,65,56,55,50,45,93,66,38,30.17,30.05,29.95,10,9,2,16,7,35,0.01,4,Rain-Thunderstorm,118
2013-9-21,88,68,47,58,51,44,93,58,22,29.96,29.82,29.65,10,10,9,23,9,29,0.00,0,,160
2013-9-22,91,74,56,58,50,41,93,57,20,29.65,29.55,29.44,10,9,4,33,13,43,T,1,,172
2013-9-23,76,62,48,51,45,40,80,55,29,29.94,29.64,29.40,10,10,4,37,15,45,0.02,2,Rain,267
2013-9-24,81,61,41,45,39,28,92,54,15,30.14,29.95,29.79,10,10,10,28,7,101,0.00,0,,178
2013-9-25,91,69,47,48,41,30,86,49,12,29.76,29.57,29.41,10,10,10,33,13,45,0.00,0,,167
2013-9-26,92,73,53,49,41,25,66,38,9,29.56,29.48,29.40,10,10,10,31,11,39,0.00,0,,187
2013-9-27,84,67,49,57,50,42,83,58,32,29.86,29.62,29.44,10,8,1,37,22,47,0.35,3,Rain-Thunderstorm,247
2013-9-28,70,56,41,42,36,27,86,53,20,30.12,30.04,29.87,10,10,10,20,6,25,0.00,0,,227
2013-9-29,83,61,38,38,33,22,85,48,10,30.04,29.90,29.75,10,10,10,15,5,18,0.00,0,,194
2013-9-30,90,66,42,41,34,23,83,46,9,29.80,29.70,29.62,10,10,10,21,8,26,0.00,0,,224